Location: Agadir Irigdalene
(31.2522°N, 8.7797°W)
Time: 05:56:37
(UTC+00:00)

Okean-O - Pass Details

Date: 01 December 2020
Orbit: 639 x 640 km, 98.2° (Epoch: 25 January)

Event Time Altitude Azimuth Distance (km) Brightness Sun altitude
Rises 19:30:22 0° 173° (S) 2,926 6.1 -24.8°
Reaches altitude 10° 19:32:34 10° 177° (S) 2,021 5.3 -25.2°
Maximum altitude 19:36:56 65° 258° (WSW) 705 2.9 -26.1°
Drops below altitude 10° 19:41:20 10° 341° (NNW) 2,034 5.3 -27.1°
Sets 19:43:34 0° 344° (NNW) 2,947 6.1 -27.5°
